TimeCDT,TemperatureF,Dew PointF,Humidity,Sea Level PressureIn,VisibilityMPH,Wind Direction,Wind SpeedMPH,Gust SpeedMPH,PrecipitationIn,Events,Conditions,WindDirDegrees,DateUTC
12:53 AM,80.1,68.0,67,29.86,10.0,South,13.8,-,N/A,,Clear,170,2013-06-23 05:53:00
1:53 AM,80.1,68.0,67,29.82,10.0,South,17.3,24.2,N/A,,Clear,180,2013-06-23 06:53:00
2:53 AM,80.1,68.0,67,29.85,10.0,South,15.0,-,N/A,,Clear,180,2013-06-23 07:53:00
3:53 AM,79.0,68.0,69,29.85,10.0,South,10.4,-,N/A,,Clear,180,2013-06-23 08:53:00
4:53 AM,78.1,68.0,71,29.84,10.0,South,13.8,-,N/A,,Clear,180,2013-06-23 09:53:00
5:53 AM,78.1,68.0,71,29.83,10.0,South,13.8,23.0,N/A,,Clear,180,2013-06-23 10:53:00
6:53 AM,78.1,68.0,71,29.82,10.0,South,15.0,23.0,N/A,,Clear,180,2013-06-23 11:53:00
7:53 AM,79.0,68.0,69,29.85,10.0,SSW,12.7,25.3,N/A,,Clear,200,2013-06-23 12:53:00
8:15 AM,78.8,69.8,74,29.92,10.0,West,9.2,-,N/A,,Mostly Cloudy,260,2013-06-23 13:15:00
8:32 AM,78.8,69.8,74,29.94,10.0,West,6.9,-,N/A,,Overcast,280,2013-06-23 13:32:00
8:53 AM,72.0,62.1,71,29.94,10.0,North,21.9,29.9,N/A,,Overcast,360,2013-06-23 13:53:00
9:53 AM,71.1,62.1,73,29.96,10.0,Calm,Calm,-,0.00,,Overcast,0,2013-06-23 14:53:00
10:17 AM,69.8,62.6,78,29.96,10.0,NNE,6.9,-,0.00,Rain-Thunderstorm,Light Rain,30,2013-06-23 15:17:00
10:53 AM,68.0,64.0,87,29.91,9.0,East,15.0,19.6,0.03,Rain-Thunderstorm,Light Rain,100,2013-06-23 15:53:00
11:01 AM,68.0,64.4,88,29.93,10.0,ESE,11.5,-,0.01,Rain,Light Rain,110,2013-06-23 16:01:00
11:08 AM,69.8,62.6,78,29.92,10.0,East,16.1,21.9,0.02,Rain,Light Rain,100,2013-06-23 16:08:00
11:24 AM,69.8,64.4,83,29.93,10.0,ESE,16.1,-,0.02,Rain-Thunderstorm,Light Rain,110,2013-06-23 16:24:00
11:35 AM,69.8,64.4,83,29.94,10.0,East,15.0,21.9,0.02,Thunderstorm,Scattered Clouds,100,2013-06-23 16:35:00
11:53 AM,69.1,64.0,84,29.93,9.0,East,18.4,24.2,0.03,Rain-Thunderstorm,Light Rain,100,2013-06-23 16:53:00
12:53 PM,69.1,64.0,84,29.84,9.0,SE,28.8,38.0,0.04,Rain-Thunderstorm,Light Rain,130,2013-06-23 17:53:00
1:01 PM,69.8,64.4,83,29.81,10.0,SE,34.5,43.7,0.00,Rain,Light Rain,140,2013-06-23 18:01:00
1:53 PM,75.9,64.9,69,29.78,10.0,SSE,9.2,18.4,0.00,,Clear,160,2013-06-23 18:53:00
2:53 PM,79.0,69.1,72,29.86,10.0,NNW,4.6,-,N/A,,Mostly Cloudy,340,2013-06-23 19:53:00
3:53 PM,81.0,70.0,69,29.84,10.0,NNE,8.1,-,N/A,,Clear,30,2013-06-23 20:53:00
4:53 PM,81.0,70.0,69,29.86,10.0,East,8.1,-,N/A,,Mostly Cloudy,90,2013-06-23 21:53:00
5:53 PM,82.9,71.1,67,29.84,10.0,East,10.4,-,N/A,,Partly Cloudy,100,2013-06-23 22:53:00
6:53 PM,81.0,70.0,69,29.82,10.0,ESE,6.9,-,N/A,,Scattered Clouds,110,2013-06-23 23:53:00
7:53 PM,80.1,72.0,76,29.83,10.0,ESE,9.2,-,N/A,,Clear,110,2013-06-24 00:53:00
8:53 PM,79.0,72.0,79,29.85,10.0,ESE,10.4,-,N/A,,Partly Cloudy,110,2013-06-24 01:53:00
9:53 PM,79.0,72.0,79,29.87,10.0,SSE,11.5,-,N/A,,Clear,150,2013-06-24 02:53:00
10:53 PM,78.1,71.1,79,29.88,10.0,SSE,6.9,-,N/A,,Clear,160,2013-06-24 03:53:00
11:53 PM,77.0,70.0,79,29.89,10.0,South,4.6,-,N/A,,Clear,190,2013-06-24 04:53:00